Location: Gellin
(53.4498°N, 14.3207°E)
Time: 23:25:44
(UTC+00:00)

ATLAS 5 CENTAUR R/B - Pass Details

Date: 03 March 2021
Orbit: 254 x 14192 km, 60.8° (Epoch: 12 April)

Event Time Altitude Azimuth Distance (km) Brightness Sun altitude
Rises 17:15:47 0° 232° (SW) 9,397 9.1 -5.4°
Reaches altitude 10° 17:24:36 10° 234° (SW) 6,231 8.1 -6.7°
Maximum altitude 17:37:48 84° 324° (NW) 989 3.1 -8.7°
Drops below altitude 10° 17:41:26 10° 53° (NE) 1,838 4.0 -9.2°
Enters shadow 17:41:47 - 54° (NE) 1,992 4.2 -9.3°
